QPF
0.00 0.00 0.00 0.00 0.00 0.00 0.00 0.00 0.00 0.00 0.00 0.00 0.00 0.00 0.00 0.00 0.00 0.00 0.00 0.00 0.00 0.00 0.00 0.00 0.00 0.00 0.00 0.00 0.00 0.00 0.00 0.00 0.00 0.00 0.00 0.00 0.00 0.00 0.00 0.00 0.00 0.00 0.00 0.00
0.00 0.00 0.00 0.00 0.00 0.00 0.00 0.00 0.00 0.00 0.00 0.00 0.00 0.00 0.00 0.00 0.00 0.00 0.00 0.00 0.00 0.00 0.00 0.00 0.00 0.00 0.00 0.00 0.00 0.00 0.00 0.00 0.00 0.00 0.00 0.00 0.00 0.00 0.00 0.00 0.00 0.00 0.00 0.00
0.00 0.00 0.00 0.00 0.00 0.00 0.00 0.00 0.00 0.00 0.00 0.00 0.00 0.00 0.00 0.00 0.00 0.00 0.00 0.00 0.00 0.00 0.00 0.00 0.00 0.00 0.00 0.00 0.00 0.00 0.00 0.00 0.00 0.00 0.00 0.00 0.00 0.00 0.00 0.00 0.00 0.00 0.00 0.00
0.00 0.00 0.00 0.00 0.00 0.00 0.00 0.00 0.00 0.00 0.00 0.00 0.00 0.00 0.00 0.00 0.00 0.00 0.00 0.00 0.00 0.00 0.00 0.00 0.00 0.00 0.00 0.00 0.00 0.00 0.00 0.00 0.00 0.00 0.00 0.00 0.00 0.00 0.00 0.00 0.00 0.00 0.00 0.00
0.00 0.00 0.00 0.00 0.00 0.00 0.00 0.00 0.00 0.00 0.00 0.00 0.00 0.00 0.00 0.00 0.00 0.00 0.00 0.00 0.00 0.00 0.00 0.00 0.00 0.00 0.00 0.00 0.00 0.00 0.00 0.00 0.00 0.00 0.00 0.00 0.00 0.00 0.00 0.00 0.00 0.00 0.00 0.00
0.00 0.00 0.00 0.00 0.00 0.00 0.00 0.00 0.00 0.00 0.00 0.00 0.00 0.00 0.00 0.00 0.00 0.00 0.00 0.00 0.00 0.00 0.00 0.00 0.00 0.00 0.00 0.00 0.00 0.00 0.00 0.00 0.00 0.00 0.00 0.00 0.00 0.00 0.00 0.00 0.00 0.00 0.00 0.00
0.00 0.00 0.00 0.00 0.00 0.00 0.00 0.00 0.00 0.00 0.00 0.00 0.00 0.00 0.00 0.00 0.00 0.00 0.00 0.00 0.00 0.00 0.00 0.00 0.00 0.00 0.00 0.00 0.00 0.00 0.00 0.00 0.00 0.00 0.00 0.00 0.00 0.00 0.00 0.00 0.00 0.00 0.00 0.00
0.00 0.00 0.00 0.00 0.00 0.00 0.00 0.00 0.00 0.00 0.00 0.00 0.00 0.00 0.00 0.00 0.00 0.00 0.00 0.00 0.00 0.00 0.00 0.00 0.00 0.00 0.00 0.00 0.00 0.00 0.00 0.00 0.00 0.00 0.00 0.00 0.00 0.00 0.00 0.00 0.00 0.00 0.00 0.00
0.00 0.00 0.00 0.00 0.00 0.00 0.00 0.00 0.00 0.00 0.00 0.00 0.00 0.00 0.00 0.00 0.00 0.00 0.00 0.00 0.00 0.00 0.00 0.00 0.00 0.00 0.00 0.00 0.00 0.00 0.00 0.00 0.00 0.00 0.00 0.00 0.00 0.00 0.00 0.00 0.00 0.00 0.00 0.00
0.00 0.00 0.00 0.00 0.00 0.00 0.00 0.00 0.00 0.00 0.00 0.00 0.00 0.00 0.00 0.00 0.00 0.00 0.00 0.00 0.00 0.00 0.00 0.00 0.00 0.00 0.00 0.00 0.00 0.00 0.00 0.00 0.00 0.00 0.00 0.00 0.00 0.00 0.00 0.00 0.01 0.01 0.01 0.00
0.00 0.00 0.00 0.00 0.00 0.00 0.00 0.00 0.00 0.00 0.00 0.00 0.00 0.00 0.00 0.00 0.00 0.00 0.00 0.00 0.00 0.00 0.00 0.00 0.00 0.00 0.00 0.00 0.00 0.00 0.00 0.00 0.00 0.00 0.00 0.00 0.00 0.00 0.00 0.00 0.02 0.03 0.02 0.02
0.00 0.00 0.00 0.00 0.00 0.00 0.00 0.00 0.00 0.00 0.00 0.00 0.00 0.00 0.00 0.00 0.00 0.00 0.00 0.00 0.00 0.00 0.00 0.00 0.00 0.00 0.00 0.00 0.00 0.00 0.00 0.00 0.00 0.00 0.00 0.00 0.00 0.00 0.00 0.00 0.00 0.00 0.01 0.01
0.00 0.00 0.00 0.00 0.00 0.00 0.00 0.00 0.00 0.00 0.00 0.00 0.00 0.00 0.00 0.00 0.00 0.00 0.00 0.00 0.00 0.00 0.00 0.00 0.00 0.00 0.00 0.00 0.00 0.00 0.00 0.00 0.00 0.00 0.00 0.00 0.00 0.00 0.00 0.00 0.00 0.00 0.00 0.00
0.00 0.00 0.00 0.00 0.00 0.00 0.00 0.00 0.00 0.00 0.00 0.00 0.00 0.00 0.00 0.00 0.00 0.00 0.00 0.00 0.00 0.00 0.00 0.00 0.00 0.00 0.00 0.00 0.00 0.00 0.00 0.00 0.00 0.00 0.00 0.00 0.00 0.00 0.00 0.00 0.00 0.00 0.00 0.00
0.00 0.00 0.00 0.00 0.00 0.00 0.00 0.00 0.00 0.00 0.00 0.00 0.00 0.00 0.00 0.00 0.00 0.00 0.00 0.00 0.00 0.00 0.00 0.00 0.00 0.00 0.00 0.00 0.00 0.00 0.00 0.00 0.00 0.00 0.00 0.00 0.00 0.00 0.00 0.00 0.00 0.00 0.00 0.00
0.00 0.00 0.00 0.00 0.00 0.00 0.00 0.00 0.00 0.00 0.00 0.00 0.00 0.00 0.00 0.00 0.00 0.00 0.00 0.00 0.00 0.00 0.00 0.00 0.00 0.00 0.00 0.00 0.00 0.00 0.00 0.00 0.00 0.00 0.00 0.00 0.00 0.00 0.00 0.00 0.00 0.00 0.00 0.01
0.00 0.00 0.00 0.00 0.00 0.00 0.00 0.00 0.00 0.00 0.00 0.00 0.00 0.00 0.00 0.00 0.00 0.00 0.00 0.00 0.00 0.00 0.00 0.00 0.00 0.00 0.00 0.00 0.00 0.00 0.00 0.00 0.00 0.00 0.00 0.00 0.00 0.00 0.00 0.00 0.01 0.00 0.00 0.01
0.00 0.00 0.00 0.00 0.00 0.00 0.00 0.00 0.00 0.00 0.00 0.00 0.00 0.00 0.00 0.00 0.00 0.00 0.00 0.00 0.00 0.00 0.00 0.00 0.00 0.00 0.00 0.00 0.00 0.00 0.00 0.00 0.00 0.00 0.00 0.00 0.00 0.00 0.00 0.00 0.00 0.00 0.00 0.00
0.00 0.00 0.00 0.00 0.00 0.00 0.00 0.00 0.00 0.00 0.00 0.00 0.00 0.00 0.00 0.00 0.00 0.00 0.00 0.00 0.00 0.00 0.00 0.00 0.00 0.00 0.00 0.00 0.00 0.00 0.00 0.00 0.00 0.00 0.00 0.00 0.00 0.00 0.00 0.00 0.00 0.00 0.00 0.00
0.00 0.00 0.00 0.00 0.00 0.00 0.00 0.00 0.00 0.00 0.00 0.00 0.00 0.00 0.00 0.00 0.00 0.00 0.00 0.00 0.00 0.00 0.00 0.00 0.00 0.00 0.00 0.00 0.00 0.00 0.00 0.00 0.00 0.00 0.00 0.00 0.00 0.00 0.00 0.00 0.00 0.00 0.00 0.00
0.00 0.00 0.00 0.00 0.00 0.00 0.00 0.00 0.00 0.00 0.00 0.00 0.00 0.00 0.00 0.00 0.00 0.00 0.00 0.00 0.00 0.00 0.00 0.00 0.00 0.00 0.00 0.00 0.00 0.00 0.00 0.00 0.00 0.00 0.00 0.00 0.00 0.00 0.00 0.00 0.00 0.00 0.00 0.00
0.00 0.00 0.00 0.00 0.00 0.00 0.00 0.00 0.00 0.00 0.00 0.00 0.00 0.00 0.00 0.00 0.00 0.00 0.00 0.00 0.00 0.00 0.00 0.00 0.00 0.00 0.00 0.00 0.00 0.00 0.00 0.00 0.00 0.00 0.00 0.00 0.00 0.00 0.00 0.00 0.00 0.00 0.00 0.00
0.00 0.00 0.00 0.00 0.00 0.00 0.00 0.00 0.00 0.00 0.00 0.00 0.00 0.00 0.00 0.00 0.00 0.00 0.00 0.00 0.00 0.00 0.00 0.00 0.00 0.00 0.00 0.00 0.00 0.00 0.00 0.00 0.00 0.00 0.00 0.00 0.00 0.00 0.00 0.00 0.00 0.00 0.00 0.00
0.00 0.00 0.00 0.00 0.00 0.00 0.00 0.00 0.00 0.00 0.00 0.00 0.00 0.00 0.00 0.00 0.00 0.00 0.00 0.00 0.00 0.00 0.00 0.00 0.00 0.00 0.00 0.00 0.00 0.00 0.00 0.00 0.00 0.00 0.00 0.00 0.00 0.00 0.00 0.00 0.00 0.00 0.00 0.00
0.00 0.00 0.00 0.00 0.00 0.00 0.00 0.00 0.00 0.00 0.00 0.00 0.00 0.00 0.00 0.00 0.00 0.00 0.00 0.00 0.00 0.00 0.00 0.00 0.00 0.00 0.00 0.00 0.00 0.00 0.00 0.00 0.00 0.00 0.00 0.00 0.00 0.00 0.00 0.00 0.00 0.00 0.00 0.00
0.00 0.00 0.00 0.00 0.00 0.00 0.00 0.00 0.00 0.00 0.00 0.00 0.00 0.00 0.00 0.00 0.00 0.00 0.00 0.00 0.00 0.00 0.00 0.00 0.00 0.00 0.00 0.00 0.00 0.00 0.00 0.00 0.00 0.00 0.00 0.00 0.00 0.00 0.00 0.00 0.00 0.00 0.00 0.00
0.00 0.00 0.00 0.00 0.00 0.00 0.00 0.00 0.00 0.00 0.00 0.00 0.00 0.00 0.00 0.00 0.00 0.00 0.00 0.00 0.00 0.00 0.00 0.00 0.00 0.00 0.00 0.00 0.00 0.00 0.00 0.00 0.00 0.00 0.00 0.00 0.00 0.00 0.00 0.00 0.00 0.00 0.00 0.00
MSLP
1028.49 1028.34 1028.19 1028.06 1027.93 1027.79 1027.65 1027.52 1027.41 1027.36 1027.41 1027.61 1027.99 1028.58 1029.37 1030.33 1031.41 1032.54 1033.65 1034.66 1035.51 1036.17 1036.63 1036.88 1036.94 1036.85 1036.65 1036.34 1035.98 1035.57 1035.12 1034.65 1034.15 1033.63 1033.09 1032.51 1031.89 1031.23 1030.50 1029.68 1028.76 1027.72 1026.57 1025.34
1028.87 1028.56 1028.21 1027.85 1027.50 1027.17 1026.90 1026.69 1026.57 1026.58 1026.73 1027.06 1027.57 1028.27 1029.14 1030.13 1031.21 1032.31 1033.36 1034.32 1035.13 1035.77 1036.23 1036.52 1036.64 1036.61 1036.47 1036.22 1035.90 1035.52 1035.08 1034.60 1034.10 1033.57 1033.03 1032.47 1031.88 1031.25 1030.57 1029.81 1028.95 1027.98 1026.90 1025.74
1029.26 1028.77 1028.21 1027.62 1027.05 1026.54 1026.13 1025.86 1025.74 1025.81 1026.08 1026.53 1027.19 1028.00 1028.95 1029.98 1031.05 1032.11 1033.11 1034.01 1034.77 1035.39 1035.85 1036.16 1036.33 1036.37 1036.29 1036.11 1035.83 1035.47 1035.05 1034.58 1034.07 1033.54 1033.00 1032.45 1031.88 1031.29 1030.66 1029.96 1029.17 1028.29 1027.30 1026.24
1029.53 1028.88 1028.12 1027.33 1026.57 1025.90 1025.39 1025.07 1024.98 1025.12 1025.50 1026.10 1026.89 1027.81 1028.84 1029.90 1030.97 1031.99 1032.93 1033.77 1034.48 1035.06 1035.52 1035.84 1036.05 1036.14 1036.12 1035.98 1035.75 1035.42 1035.01 1034.54 1034.03 1033.50 1032.96 1032.41 1031.87 1031.32 1030.73 1030.09 1029.38 1028.57 1027.68 1026.71
1029.55 1028.77 1027.86 1026.91 1026.01 1025.24 1024.67 1024.35 1024.30 1024.54 1025.04 1025.77 1026.69 1027.72 1028.81 1029.91 1030.97 1031.95 1032.84 1033.61 1034.26 1034.81 1035.24 1035.57 1035.79 1035.92 1035.93 1035.84 1035.63 1035.32 1034.93 1034.46 1033.95 1033.41 1032.87 1032.34 1031.81 1031.28 1030.73 1030.14 1029.48 1028.75 1027.93 1027.05
1029.23 1028.35 1027.34 1026.31 1025.34 1024.54 1023.97 1023.69 1023.72 1024.07 1024.69 1025.55 1026.58 1027.70 1028.85 1029.98 1031.03 1031.97 1032.81 1033.52 1034.11 1034.61 1035.01 1035.33 1035.55 1035.69 1035.72 1035.64 1035.45 1035.16 1034.77 1034.31 1033.80 1033.26 1032.72 1032.18 1031.66 1031.15 1030.62 1030.06 1029.44 1028.76 1028.00 1027.17
1028.49 1027.57 1026.54 1025.49 1024.54 1023.77 1023.27 1023.08 1023.22 1023.69 1024.44 1025.41 1026.53 1027.73 1028.93 1030.06 1031.10 1032.01 1032.79 1033.45 1033.99 1034.44 1034.80 1035.09 1035.30 1035.43 1035.47 1035.39 1035.21 1034.91 1034.53 1034.06 1033.55 1033.01 1032.47 1031.94 1031.42 1030.91 1030.39 1029.84 1029.24 1028.57 1027.84 1027.06
1027.36 1026.44 1025.45 1024.47 1023.61 1022.96 1022.58 1022.52 1022.79 1023.38 1024.24 1025.30 1026.50 1027.75 1028.97 1030.11 1031.13 1032.01 1032.75 1033.35 1033.85 1034.26 1034.58 1034.84 1035.03 1035.13 1035.15 1035.07 1034.87 1034.58 1034.19 1033.73 1033.22 1032.69 1032.15 1031.62 1031.10 1030.58 1030.05 1029.49 1028.89 1028.22 1027.49 1026.72
1025.88 1025.03 1024.14 1023.30 1022.60 1022.11 1021.90 1022.00 1022.41 1023.12 1024.07 1025.21 1026.45 1027.71 1028.93 1030.05 1031.05 1031.90 1032.61 1033.18 1033.65 1034.02 1034.32 1034.54 1034.70 1034.79 1034.78 1034.68 1034.48 1034.18 1033.79 1033.34 1032.84 1032.32 1031.79 1031.26 1030.74 1030.21 1029.66 1029.08 1028.45 1027.77 1027.02 1026.25
1024.19 1023.45 1022.71 1022.06 1021.56 1021.28 1021.27 1021.54 1022.09 1022.90 1023.92 1025.08 1026.33 1027.58 1028.78 1029.87 1030.84 1031.66 1032.35 1032.90 1033.35 1033.70 1033.98 1034.19 1034.33 1034.39 1034.37 1034.25 1034.04 1033.74 1033.37 1032.93 1032.45 1031.94 1031.42 1030.91 1030.38 1029.85 1029.28 1028.68 1028.02 1027.30 1026.54 1025.75
1022.41 1021.81 1021.27 1020.84 1020.58 1020.53 1020.72 1021.15 1021.82 1022.71 1023.76 1024.92 1026.14 1027.35 1028.50 1029.55 1030.48 1031.28 1031.95 1032.49 1032.94 1033.29 1033.57 1033.78 1033.91 1033.96 1033.93 1033.81 1033.60 1033.31 1032.95 1032.54 1032.09 1031.61 1031.12 1030.61 1030.10 1029.56 1028.98 1028.35 1027.66 1026.93 1026.14 1025.33
1020.65 1020.22 1019.90 1019.72 1019.70 1019.89 1020.27 1020.85 1021.62 1022.55 1023.60 1024.72 1025.88 1027.02 1028.10 1029.09 1029.98 1030.76 1031.42 1031.97 1032.43 1032.80 1033.09 1033.31 1033.45 1033.51 1033.49 1033.37 1033.18 1032.92 1032.59 1032.21 1031.80 1031.36 1030.90 1030.42 1029.92 1029.38 1028.80 1028.16 1027.46 1026.70 1025.90 1025.09
1019.01 1018.76 1018.66 1018.73 1018.96 1019.36 1019.91 1020.62 1021.46 1022.40 1023.42 1024.49 1025.56 1026.61 1027.62 1028.55 1029.39 1030.14 1030.80 1031.37 1031.85 1032.25 1032.57 1032.81 1032.97 1033.05 1033.05 1032.97 1032.80 1032.57 1032.29 1031.96 1031.59 1031.20 1030.78 1030.33 1029.86 1029.33 1028.76 1028.12 1027.42 1026.66 1025.86 1025.05
1017.48 1017.43 1017.56 1017.85 1018.31 1018.90 1019.61 1020.41 1021.30 1022.24 1023.21 1024.21 1025.19 1026.15 1027.07 1027.93 1028.74 1029.47 1030.13 1030.71 1031.22 1031.65 1032.01 1032.28 1032.48 1032.59 1032.62 1032.57 1032.46 1032.27 1032.04 1031.76 1031.45 1031.11 1030.74 1030.33 1029.89 1029.39 1028.84 1028.22 1027.53 1026.79 1026.01 1025.20
1016.06 1016.20 1016.54 1017.05 1017.70 1018.46 1019.29 1020.17 1021.08 1022.01 1022.94 1023.86 1024.76 1025.64 1026.48 1027.29 1028.05 1028.77 1029.43 1030.03 1030.56 1031.03 1031.42 1031.73 1031.96 1032.11 1032.19 1032.18 1032.12 1031.99 1031.82 1031.60 1031.35 1031.06 1030.74 1030.38 1029.97 1029.50 1028.98 1028.39 1027.74 1027.03 1026.28 1025.50
1014.69 1015.01 1015.54 1016.24 1017.05 1017.94 1018.87 1019.81 1020.74 1021.65 1022.54 1023.40 1024.24 1025.05 1025.85 1026.61 1027.35 1028.05 1028.72 1029.33 1029.88 1030.37 1030.78 1031.13 1031.39 1031.59 1031.71 1031.76 1031.75 1031.69 1031.58 1031.43 1031.24 1031.01 1030.73 1030.41 1030.05 1029.62 1029.13 1028.58 1027.97 1027.31 1026.61 1025.87
1013.32 1013.81 1014.50 1015.35 1016.29 1017.28 1018.27 1019.25 1020.20 1021.10 1021.97 1022.80 1023.60 1024.38 1025.14 1025.89 1026.62 1027.32 1027.98 1028.59 1029.16 1029.66 1030.09 1030.46 1030.76 1030.99 1031.16 1031.27 1031.32 1031.33 1031.29 1031.20 1031.07 1030.90 1030.68 1030.41 1030.08 1029.69 1029.24 1028.74 1028.18 1027.57 1026.92 1026.24
1011.96 1012.58 1013.40 1014.34 1015.37 1016.42 1017.46 1018.46 1019.42 1020.33 1021.19 1022.01 1022.81 1023.59 1024.36 1025.10 1025.83 1026.53 1027.20 1027.81 1028.38 1028.89 1029.33 1029.71 1030.04 1030.30 1030.52 1030.69 1030.81 1030.89 1030.92 1030.90 1030.84 1030.72 1030.55 1030.32 1030.03 1029.69 1029.28 1028.83 1028.32 1027.77 1027.18 1026.55
1010.63 1011.35 1012.23 1013.23 1014.29 1015.37 1016.42 1017.43 1018.40 1019.32 1020.19 1021.04 1021.86 1022.67 1023.46 1024.22 1024.97 1025.68 1026.34 1026.96 1027.52 1028.02 1028.47 1028.86 1029.21 1029.51 1029.78 1030.01 1030.20 1030.35 1030.46 1030.52 1030.52 1030.47 1030.35 1030.16 1029.91 1029.61 1029.25 1028.84 1028.38 1027.89 1027.35 1026.78
1009.39 1010.16 1011.08 1012.08 1013.13 1014.18 1015.21 1016.22 1017.18 1018.12 1019.02 1019.90 1020.77 1021.62 1022.45 1023.25 1024.02 1024.74 1025.41 1026.02 1026.57 1027.07 1027.52 1027.92 1028.28 1028.62 1028.94 1029.23 1029.50 1029.73 1029.92 1030.06 1030.13 1030.14 1030.08 1029.94 1029.74 1029.47 1029.14 1028.78 1028.37 1027.92 1027.44 1026.92
1008.33 1009.12 1010.01 1010.97 1011.96 1012.96 1013.95 1014.92 1015.87 1016.81 1017.74 1018.66 1019.57 1020.48 1021.35 1022.20 1022.99 1023.73 1024.41 1025.01 1025.56 1026.04 1026.49 1026.90 1027.29 1027.66 1028.03 1028.39 1028.74 1029.05 1029.33 1029.55 1029.70 1029.78 1029.77 1029.68 1029.52 1029.29 1029.00 1028.67 1028.30 1027.90 1027.46 1026.97
1007.54 1008.29 1009.13 1010.00 1010.90 1011.81 1012.72 1013.64 1014.56 1015.49 1016.44 1017.39 1018.35 1019.29 1020.21 1021.09 1021.91 1022.67 1023.34 1023.95 1024.48 1024.97 1025.41 1025.83 1026.25 1026.67 1027.09 1027.53 1027.95 1028.35 1028.71 1029.01 1029.24 1029.39 1029.44 1029.40 1029.28 1029.09 1028.83 1028.54 1028.20 1027.83 1027.42 1026.96
1007.05 1007.74 1008.48 1009.25 1010.03 1010.82 1011.64 1012.48 1013.35 1014.26 1015.20 1016.17 1017.15 1018.13 1019.08 1019.98 1020.82 1021.58 1022.26 1022.86 1023.39 1023.88 1024.33 1024.77 1025.21 1025.68 1026.16 1026.66 1027.15 1027.64 1028.08 1028.46 1028.76 1028.97 1029.09 1029.09 1029.02 1028.86 1028.64 1028.37 1028.06 1027.71 1027.33 1026.89
1006.85 1007.46 1008.09 1008.73 1009.37 1010.05 1010.75 1011.50 1012.31 1013.17 1014.09 1015.05 1016.04 1017.03 1017.99 1018.91 1019.75 1020.51 1021.19 1021.79 1022.32 1022.80 1023.26 1023.73 1024.21 1024.71 1025.25 1025.81 1026.37 1026.93 1027.44 1027.89 1028.26 1028.53 1028.69 1028.75 1028.71 1028.59 1028.40 1028.15 1027.87 1027.54 1027.17 1026.75
1006.87 1007.40 1007.91 1008.41 1008.93 1009.47 1010.06 1010.72 1011.45 1012.26 1013.13 1014.07 1015.04 1016.02 1016.97 1017.88 1018.71 1019.47 1020.14 1020.73 1021.27 1021.76 1022.24 1022.73 1023.24 1023.79 1024.37 1024.99 1025.61 1026.21 1026.78 1027.29 1027.71 1028.02 1028.23 1028.33 1028.33 1028.24 1028.08 1027.86 1027.60 1027.29 1026.94 1026.53
1007.00 1007.43 1007.83 1008.22 1008.61 1009.04 1009.53 1010.09 1010.74 1011.48 1012.31 1013.20 1014.13 1015.08 1016.01 1016.89 1017.71 1018.45 1019.12 1019.71 1020.26 1020.77 1021.27 1021.78 1022.33 1022.91 1023.53 1024.18 1024.84 1025.48 1026.09 1026.63 1027.08 1027.43 1027.67 1027.81 1027.84 1027.78 1027.65 1027.46 1027.23 1026.94 1026.61 1026.22
1007.07 1007.42 1007.73 1008.02 1008.32 1008.65 1009.05 1009.53 1010.11 1010.79 1011.55 1012.39 1013.27 1014.18 1015.07 1015.92 1016.72 1017.45 1018.11 1018.71 1019.26 1019.79 1020.32 1020.87 1021.44 1022.05 1022.70 1023.37 1024.05 1024.72 1025.34 1025.90 1026.37 1026.74 1027.00 1027.16 1027.22 1027.19 1027.09 1026.94 1026.73 1026.48 1026.17 1025.81
Thickness
5622 5621 5615 5612 5609 5595 5583 5580 5574 5581 5572 5585 5563 5537 5516 5493 5473 5455 5439 5423 5406 5387 5367 5350 5334 5319 5306 5292 5281 5270 5258 5247 5237 5226 5215 5205 5194 5183 5171 5159 5147 5136 5127 5120
5623 5624 5615 5608 5608 5597 5588 5581 5574 5574 5580 5579 5549 5530 5507 5487 5473 5457 5440 5423 5405 5387 5367 5349 5332 5318 5304 5291 5280 5268 5257 5246 5236 5226 5216 5206 5195 5184 5173 5161 5150 5139 5129 5122
5621 5617 5622 5626 5632 5605 5598 5588 5585 5583 5591 5565 5543 5525 5509 5491 5475 5460 5441 5422 5404 5385 5366 5348 5332 5317 5303 5290 5279 5267 5256 5246 5236 5226 5216 5206 5196 5185 5175 5164 5153 5143 5134 5126
5604 5617 5630 5648 5634 5620 5613 5606 5589 5586 5583 5558 5547 5525 5507 5491 5475 5457 5440 5422 5403 5383 5365 5348 5331 5316 5302 5290 5278 5267 5256 5246 5236 5227 5217 5208 5197 5187 5177 5168 5157 5148 5139 5131
5596 5607 5617 5637 5632 5616 5611 5613 5607 5591 5582 5548 5523 5516 5502 5488 5473 5457 5438 5419 5399 5381 5363 5347 5330 5316 5302 5290 5278 5267 5257 5248 5239 5229 5220 5210 5200 5190 5181 5172 5163 5154 5146 5137
5585 5605 5614 5644 5629 5615 5611 5608 5613 5593 5573 5536 5526 5520 5516 5493 5472 5452 5434 5416 5397 5379 5362 5346 5331 5316 5302 5290 5279 5269 5260 5251 5241 5232 5222 5213 5204 5194 5185 5176 5169 5160 5152 5145
5582 5588 5617 5637 5618 5613 5611 5623 5620 5592 5569 5542 5535 5531 5514 5491 5469 5450 5431 5413 5395 5378 5361 5346 5331 5316 5303 5291 5281 5271 5262 5253 5245 5235 5225 5217 5208 5199 5190 5182 5173 5165 5158 5152
5576 5579 5618 5633 5611 5615 5629 5624 5609 5589 5569 5550 5536 5516 5500 5485 5467 5448 5429 5411 5394 5377 5361 5346 5331 5317 5305 5293 5283 5273 5264 5256 5247 5239 5230 5222 5212 5205 5197 5188 5181 5175 5168 5162
5615 5640 5651 5632 5634 5634 5625 5615 5603 5587 5569 5552 5531 5513 5498 5480 5462 5445 5428 5411 5393 5377 5362 5347 5333 5319 5306 5296 5285 5275 5265 5257 5250 5242 5234 5226 5218 5211 5204 5197 5190 5185 5179 5172
5615 5644 5648 5637 5632 5629 5619 5613 5603 5586 5569 5553 5533 5516 5497 5480 5461 5443 5427 5410 5393 5377 5362 5348 5335 5322 5309 5298 5287 5276 5267 5259 5252 5245 5238 5230 5224 5217 5210 5204 5199 5195 5187 5181
5621 5642 5642 5649 5641 5638 5623 5609 5596 5581 5568 5554 5537 5517 5499 5481 5463 5445 5430 5412 5394 5379 5365 5352 5338 5324 5312 5300 5289 5278 5269 5262 5254 5248 5240 5233 5228 5221 5216 5210 5205 5201 5194 5188
5653 5662 5653 5660 5657 5638 5622 5609 5595 5579 5563 5550 5538 5521 5501 5483 5465 5446 5429 5412 5396 5381 5369 5355 5340 5327 5314 5303 5291 5280 5272 5265 5258 5251 5245 5238 5230 5225 5219 5214 5210 5205 5199 5194
5667 5665 5656 5655 5646 5631 5621 5610 5596 5583 5570 5552 5535 5521 5503 5482 5463 5445 5429 5413 5400 5386 5372 5357 5343 5329 5317 5305 5294 5284 5274 5267 5260 5254 5247 5241 5234 5228 5223 5219 5213 5208 5204 5199
5656 5648 5646 5643 5636 5626 5615 5605 5591 5578 5565 5553 5536 5518 5501 5481 5463 5447 5433 5418 5403 5388 5373 5359 5345 5333 5321 5308 5297 5287 5277 5270 5263 5255 5248 5240 5234 5228 5223 5219 5216 5211 5207 5202
5653 5646 5646 5640 5629 5616 5605 5593 5581 5570 5557 5544 5530 5516 5500 5484 5468 5453 5436 5420 5404 5389 5375 5361 5348 5336 5324 5311 5300 5290 5280 5271 5264 5257 5250 5242 5236 5229 5224 5218 5214 5211 5208 5205
5651 5640 5634 5626 5619 5607 5596 5589 5583 5573 5558 5544 5529 5516 5502 5488 5472 5454 5436 5421 5406 5392 5379 5365 5352 5340 5327 5315 5303 5292 5282 5275 5268 5260 5251 5244 5237 5231 5225 5219 5215 5211 5208 5205
5640 5638 5627 5621 5618 5609 5602 5596 5591 5580 5562 5547 5534 5518 5500 5483 5468 5453 5438 5423 5410 5397 5383 5369 5356 5344 5331 5318 5306 5295 5284 5275 5269 5259 5252 5245 5239 5232 5225 5220 5215 5211 5207 5205
5659 5661 5649 5638 5629 5616 5605 5595 5587 5577 5564 5551 5533 5515 5500 5487 5475 5459 5442 5424 5408 5395 5384 5372 5359 5346 5333 5321 5309 5297 5286 5277 5268 5260 5253 5247 5241 5234 5227 5220 5216 5212 5208 5206
5655 5651 5645 5636 5630 5620 5609 5598 5588 5577 5562 5547 5532 5519 5507 5494 5479 5461 5442 5424 5410 5398 5388 5376 5363 5349 5336 5324 5313 5300 5289 5279 5270 5262 5255 5249 5241 5235 5228 5222 5217 5213 5209 5207
5644 5641 5636 5629 5622 5614 5607 5597 5585 5573 5560 5546 5532 5518 5505 5492 5477 5460 5443 5430 5421 5410 5395 5380 5367 5353 5340 5327 5316 5303 5291 5281 5272 5263 5256 5249 5242 5236 5229 5224 5219 5214 5210 5207
5633 5631 5626 5623 5617 5610 5603 5593 5582 5571 5557 5544 5533 5523 5510 5493 5477 5461 5445 5434 5424 5408 5395 5384 5369 5356 5343 5330 5319 5306 5294 5284 5274 5265 5257 5250 5243 5237 5231 5225 5220 5215 5211 5207
5626 5625 5623 5619 5612 5604 5595 5587 5579 5568 5554 5542 5531 5520 5506 5490 5475 5462 5451 5444 5430 5413 5398 5385 5372 5360 5346 5334 5321 5308 5297 5286 5277 5268 5259 5251 5244 5238 5232 5226 5220 5216 5211 5207
5623 5619 5615 5611 5606 5597 5584 5578 5571 5563 5552 5542 5532 5521 5510 5498 5483 5468 5456 5443 5428 5416 5402 5388 5376 5364 5351 5338 5324 5311 5300 5289 5280 5270 5262 5254 5246 5239 5233 5228 5222 5217 5212 5208
5603 5601 5597 5592 5584 5577 5573 5570 5562 5556 5547 5538 5530 5522 5511 5497 5482 5474 5464 5451 5433 5419 5405 5392 5380 5368 5355 5340 5327 5314 5303 5293 5283 5273 5264 5256 5249 5242 5235 5230 5224 5219 5214 5210
5581 5580 5577 5575 5573 5576 5570 5559 5549 5543 5535 5529 5522 5514 5507 5500 5490 5476 5461 5449 5436 5422 5407 5395 5383 5371 5358 5343 5330 5318 5307 5296 5286 5276 5267 5259 5251 5244 5238 5232 5227 5221 5216 5213
5559 5562 5564 5566 5568 5566 5559 5551 5545 5540 5532 5524 5516 5509 5501 5492 5482 5471 5458 5446 5434 5423 5409 5396 5385 5373 5359 5346 5334 5322 5311 5300 5290 5281 5271 5262 5254 5247 5241 5235 5229 5224 5219 5215
5540 5543 5545 5548 5550 5551 5548 5544 5542 5538 5533 5528 5519 5508 5498 5488 5478 5467 5455 5443 5431 5421 5409 5396 5385 5374 5362 5349 5337 5325 5314 5303 5293 5283 5274 5265 5258 5250 5244 5238 5232 5227 5222 5218